Regional Weather Roundup
Issued by NWS

Home | Current Version | Previous Version | Text Only | Print | Product List | Glossary On
Versions: 1 2 3 4 5 6 7 8 9 10 11 12 13 14 15 16 17 18 19 20 21 22 23 24 25 26 27 28 29 30 31 32 33 34 35 36 37 38 39 40 41 42 43 44 45 46 47 48 49 50
000
ASUS43 KLOT 290908
RWRIL

ILLINOIS REGIONAL WEATHER ROUNDUP
NATIONAL WEATHER SERVICE CHICAGO/ROMEOVILLE IL
400 AM CDT FRI APR 29 2016

NOTE: "FAIR" INDICATES FEW OR NO CLOUDS BELOW 12,000 FEET WITH NO
SIGNIFICANT WEATHER AND/OR OBSTRUCTIONS TO VISIBILITY.

* THESE STATIONS ARE NOT UNDER NWS QUALITY CONTROL. THEY ALSO MAY NOT
  REPORT WEATHER SUCH AS PRECIPITATION OR FOG.

ILZ001-002-007-009-015-016-024-291000-
NORTHWEST ILLINOIS

CITY           SKY/WX    TMP DP  RH WIND       PRES   REMARKS
MOLINE         CLOUDY    46  43  89 VRB5      30.06R FOG
STERLING*      CLOUDY    43  41  93 N5        30.06R
SAVANNA*       CLOUDY    42  40  93 N6        30.06S
$$

ILZ003-004-008-010-011-017-018-291000-
NORTH CENTRAL ILLINOIS

CITY           SKY/WX    TMP DP  RH WIND       PRES   REMARKS
ROCKFORD       CLOUDY    42  39  89 N7        30.07R
FREEPORT*      CLOUDY    40  38  95 N3        30.08S
ROCHELLE*      CLOUDY    42  40  96 N9        30.04S FOG
DE KALB*       CLOUDY    42  41  97 N7        30.04R FOG
$$

ILZ005-006-012>014-019>023-291000-
NORTHEAST ILLINOIS

CITY           SKY/WX    TMP DP  RH WIND       PRES   REMARKS
CHICAGO-OHARE  CLOUDY    43  41  93 N7        30.02R FOG
CHICAGO-MIDWAY CLOUDY    45  41  86 NW9       30.02R FOG
AURORA         CLOUDY    44  41  89 N9        30.02S FOG
LANSING*       CLOUDY    45  43  95 N5        30.01R FOG
JOLIET*        CLOUDY    46  44  94 CALM      30.02S FOG
WAUKEGAN       CLOUDY    41  40  96 N5        30.03R
DUPAGE AIRPORT CLOUDY    43  40  89 N9        30.02R FOG
KANKAKEE*      CLOUDY    46  43  88 NW5       30.02S FOG
WHEELING       CLOUDY    42  41  96 N7        30.04R FOG
MORRIS*        CLOUDY    45  42  91 CALM      30.01S FOG
ROMEOVILLE*    CLOUDY    44  42  92 N8        30.02R FOG
NORTHERLY ISL    N/A     44  42  93 NW2         N/A
NORTHERLY ISL    N/A     44  42  93 NW2         N/A
$$

LMZ740>746-291000-
SOUTHERN LAKE MICHIGAN

STATION/POSITION SKY/WX   TEMP    WIND        PRES    VSBY  WAVE
                          AIR SEA DIR/SP/G                  HT/PER
                          (F)     (DEG/KT/KT) (MB)    (MI)  (FT/S)
SOUTHERN BUOY              41 40   40/  8/ 10 1016.7R         1/ 3
HARRISON CRIB              44     330/ 10/ 10   N/A
BURNHAM HARBOR             44     340/  5/  6   N/A
CALUMET HARBOR             44     290/  3/  6 1015.3F
BURNS HARBOR               44     310/  6/  8 1016.3F
MICHIGAN CITY              43     230/ 12/ 13   N/A
ST. JOSEPH                 48 47  200/  6/  6   N/A           1/ 4
$$

ILZ025>027-034>036-040-047-049-050-058-095>099-291000-
WEST-CENTRAL ILLINOIS

CITY           SKY/WX    TMP DP  RH WIND       PRES   REMARKS
QUINCY         CLOUDY    49  45  86 NW6       30.06R
GALESBURG*     CLOUDY    50  49  96 NW7       30.05R FOG
MACOMB*        MOCLDY    47  46  96 W6        30.07R
JACKSONVILLE*  PTCLDY    50  46  87 W5        30.05R
PITTSFIELD*    CLOUDY    51  47  84 NW6       30.07R
$$

ILZ028>032-037-038-041>044-048-051>054-059>061-291000-
CENTRAL ILLINOIS

CITY           SKY/WX    TMP DP  RH WIND       PRES   REMARKS
PONTIAC        CLOUDY    49  48  99 CALM      30.03R FOG
BLOOMINGTON    CLEAR     49  48  96 W7        30.04R
DECATUR        CLEAR     51  47  86 W3        30.04R
PEORIA         MOCLDY    51  47  86 W3        30.04R
LACON*         CLOUDY    47  45  92 CALM      30.03R FOG
LINCOLN*       CLEAR     53  50  89 CALM      30.04R
SPRINGFIELD    PTCLDY    52  47  83 NW7       30.03R
TAYLORVILLE    CLOUDY    48  48 100 CALM      30.05R
$$

ILZ033-039-045-046-055>057-062-063-291000-
EAST-CENTRAL ILLINOIS

CITY           SKY/WX    TMP DP  RH WIND       PRES   REMARKS
CHAMPAIGN      CLEAR     47  45  93 W3        30.02R
RANTOUL*       CLEAR     49  49  99 W3        30.02R FOG
PARIS*         CLOUDY    47  46  98 CALM      30.03R
$$

ILZ079-100>102-291000-
SOUTHWEST ILLINOIS

CITY           SKY/WX    TMP DP  RH WIND       PRES   REMARKS
ALTON          MOCLDY    51  49  93 CALM      30.06R
BELLEVILLE     CLOUDY    52  51  99 NW3       30.05R
CAHOKIA*       MOCLDY    53  50  89 CALM      30.06R
SPARTA*        CLOUDY    54  51  89 CALM      30.06R
$$

ILZ064>066-069>071-074>076-080>082-084>086-088>090-092>094-291000-
SOUTH-CENTRAL ILLINOIS

CITY           SKY/WX    TMP DP  RH WIND       PRES   REMARKS
CARBONDALE     PTCLDY    52  50  93 CALM      30.04R
CAIRO*         CLOUDY    58  53  84 N8        30.02S
EFFINGHAM*     CLOUDY    50  50 100 CALM      30.05R
MARION         MOCLDY    54  52  94 CALM      30.05R
MT. VERNON     CLEAR     48  45  87 CALM      30.05R
CENTRALIA*     CLOUDY    51  51  99 CALM      30.04R
SALEM*         CLOUDY    52  50  92 CALM      30.05R
METROPOLIS*    CLOUDY    57  54  88 CALM      30.03R
$$

ILZ067-068-072-073-078-083-087-091-291000-
SOUTHEAST ILLINOIS

CITY           SKY/WX    TMP DP  RH WIND       PRES   REMARKS
LAWRENCEVILLE  CLOUDY    53  50  89 CALM      30.03R
FLORA*         CLOUDY    54  50  88 CALM      30.04R
FAIRFIELD*     CLOUDY    52  51  97 CALM      30.04R
HARRISBURG*    PTCLDY    54  51  89 CALM      30.04R
ROBINSON*      CLOUDY    48  48 100 CALM      30.04R
CARMI*         CLOUDY    53  52  97 CALM      30.03R
$$

ABBREVIATIONS USED IN REMARKS
   TC - TEMPERATURE IN CELSIUS
  WCI - WIND CHILL INDEX
   HX - HEAT INDEX
  VSB - VISIBILITY
$$





USA.gov is the U.S. government's official web portal to all federal, state and local government web resources and services.